User: anonymous   Login
Location: Unspecified
(0.0000°N, 0.0000°E)
Time: 21:26:22
(UTC+00:00)
Language:

COSMOS 2468 - Orbit

View from above orbital plane
View from above orbital plane
View from above satellite
View from above satellite

Ground track
Ground track

The orbit data is extracted from the following two-line orbital elements,

1 37154U 10043C   18051.71689944 -.00000004 +00000-0 -99697-4 0  9991
2 37154 082.4656 164.5078 0015780 096.9565 263.3293 12.43639068338245
Epoch (UTC): 20 February 2018 17:12:20
Eccentricity: 0.0015780
inclination: 82.4656°
perigee height: 1479 km
apogee height: 1503 km
right ascension of ascending node: 164.5078°
argument of perigee: 96.9565°
revolutions per day: 12.43639068
mean anomaly at epoch: 263.3293°
orbit number at epoch: 33824

The dashed part of the orbit path shows where the satellite is in the earth's shadow,  

DLR